Location: Krakow
(50.0830°N, 19.9170°E)
Time: 17:04:16
(UTC+02:00)

Courier 1B - Pass Details

Date: 22 March 2026
Orbit: 962 x 1209 km, 28.3° (Epoch: 19 April)

Event Time Altitude Azimuth Distance (km) Brightness Sun altitude
Rises 08:17:13 0° 231° (SW) 4,060 10.5 23.5°
Reaches altitude 10° 08:22:09 10° 204° (SSW) 3,052 10.3 24.2°
Maximum altitude 08:25:01 12° 182° (S) 2,834 10.4 24.6°
Drops below altitude 10° 08:27:50 10° 159° (SSE) 2,987 11.0 25.0°
Sets 08:32:32 0° 132° (SE) 3,883 12.0 25.6°
